Regional Weather Roundup
Issued by NWS Bismarck, ND

Home | Current Version | Previous Version | Text Only | Print | Product List | Glossary On
Versions: 1 2 3 4 5 6 7 8 9 10 11 12 13 14 15 16 17 18 19 20 21 22 23 24 25 26 27 28 29 30 31 32 33 34 35 36 37 38 39 40 41 42 43 44 45 46 47 48 49 50
000
ASUS43 KBIS 301620
RWRBIS

NWR BROADCAST TEXT
NATIONAL WEATHER SERVICE BISMARCK ND
1100 AM CDT WED JUL 30 2014

NOTE: "FAIR" INDICATES FEW OR NO CLOUDS BELOW 12,000 FEET WITH NO
SIGNIFICANT WEATHER AND/OR OBSTRUCTIONS TO VISIBILITY.


CITY           SKY/WX    TMP DP  RH WIND       PRES   REMARKS
WILLISTON      SUNNY     78  51  38 N9        30.19F
MINOT          SUNNY     74  60  61 CALM      30.16S
MINOT AFB      MOSUNNY   73  64  72 VRB2      30.16S
BISMARCK       SUNNY     77  58  51 VRB3      30.17F
DICKINSON      SUNNY     74  55  51 N7        30.18F
GARRISON         N/A     72  58  61 S3        30.17F
HETTINGER ARPT SUNNY     72  56  57 N9        30.19F
JAMESTOWN      SUNNY     73  52  47 CALM      30.16S
CARRINGTON     FAIR      72  57  60 NW6       30.17F
CROSBY         FAIR      72  57  60 N6        30.20S
HARVEY         FAIR      73  59  60 CALM      30.17S
HAZEN          FAIR      73  55  53 CALM      30.18S
LINTON         FAIR      75  57  53 E5        30.16F
MANDAN         FAIR      73  55  53 SE5       30.18S
RUGBY          FAIR      73  61  64 NW5       30.16S
STANLEY        FAIR      72  61  68 N5        30.19S
TIOGA          FAIR      72  54  53 N8        30.22F
WATFORD CITY   FAIR      73  57  56 NE7       30.18S
$$

CITY           SKY/WX    TMP DP  RH WIND       PRES   REMARKS
GRAND FORKS    SUNNY     75  59  57 NW5       30.12R
GRAND FORKS AF SUNNY     75  59  58 NW6       30.13S
DEVILS LAKE    SUNNY     73  57  56 NW7       30.14S
FARGO          SUNNY     75  56  51 VRB6      30.13S
CANDO          FAIR      73  61  64 NW8       30.16S
CAVALIER       FAIR      75  54  46 NW3       30.11S
GRAFTON        FAIR      73  55  53 NW7       30.12R
GWINNER        SUNNY     75  54  46 NW7       30.16S
LANGDON        FAIR      75  59  57 NW8       30.14F
ROLLA            N/A     73  59  60 NW8       30.17S
WALHALLA       FAIR      75  57  53 N8          N/A
$$

CITY           SKY/WX    TMP DP  RH WIND       PRES   REMARKS
ABERDEEN       SUNNY     73  54  51 CALM      30.16S
MOBRIDGE       MOSUNNY   75  58  55 S6        30.13F
BUFFALO          N/A     75  54  47 N10       30.14F
RAPID CITY     SUNNY     76  54  46 CALM      30.21S
GLASGOW        SUNNY     78  52  40 SE7       30.18S
SIDNEY         SUNNY     75  61  60 E7        30.20F
WOLF POINT     SUNNY     75  56  51 SW3       30.19S
GLENDIVE       SUNNY     75  54  46 N5        30.21F
MILES CITY     SUNNY     77  52  41 E3        30.20F
BAKER          SUNNY     77  52  41 NE9       30.22F
$$

CITY           SKY/WX    TMP DP  RH WIND       PRES   REMARKS
BILLINGS       MOSUNNY   73  54  51 SW7       30.25S
GREAT FALLS    FAIR      82  48  30 S8        30.17F
REGINA         MOSUNNY   73  55  53 S6        30.20S
ESTEVAN        MOSUNNY   72  55  56 NW3       30.20S
$$




USA.gov is the U.S. government's official web portal to all federal, state and local government web resources and services.